Regional Weather Roundup
Issued by NWS

Home | Current Version | Previous Version | Text Only | Print | Product List | Glossary Off
Versions: 1 2 3 4 5 6 7 8 9 10 11 12 13 14 15 16 17 18 19 20 21 22 23 24 25 26 27 28 29 30 31 32 33 34 35 36 37 38 39 40 41 42 43 44 45 46 47 48 49 50

000
ASUS43 KFSD 211510
RWRSD

WEATHER ROUNDUP FOR SOUTH DAKOTA
NATIONAL WEATHER SERVICE SIOUX FALLS SD
1000 AM CDT THU SEP 21 2017

NOTE: "FAIR" INDICATES FEW OR NO CLOUDS BELOW 12,000 FEET WITH NO
SIGNIFICANT WEATHER AND/OR OBSTRUCTIONS TO VISIBILITY.


SDZ001>005-009-010-012>017-211600-
NORTHWEST AND NORTH CENTRAL SOUTH DAKOTA

CITY           SKY/WX    TMP DP  RH WIND       PRES   REMARKS
BUFFALO          N/A     62  36  37 N20       29.61R
FAITH            N/A     64  45  49 S30G36    29.63F
MOBRIDGE       SUNNY     67  50  54 S26G36    29.68F
$$

SDZ012>016-024>037-041>051-057-063-072>074-211600-
SOUTHWEST AND SOUTH CENTRAL SOUTH DAKOTA

CITY           SKY/WX    TMP DP  RH WIND       PRES   REMARKS
RAPID CTY ARPT SUNNY     64  41  42 S14       29.66S
PIERRE         SUNNY     66  48  52 SE23      29.71F
CUSTER         SUNNY     61  37  41 VRB3      29.75R
ELLSWORTH AFB  SUNNY     63  40  42 S12       29.66R
PHILIP         SUNNY     70  53  54 S17       29.67F
PINE RIDGE     SUNNY     65  50  58 S22G36    29.69R
SPEARFISH      FAIR      59  37  44 NW12      29.72R
WINNER         FAIR      67  54  63 SE18      29.74F
$$

SDZ004>011-016>023-039-040-211600-
NORTHEAST SOUTH DAKOTA

CITY           SKY/WX    TMP DP  RH WIND       PRES   REMARKS
ABERDEEN       SUNNY     67  49  52 S13       29.79F
WATERTOWN      SUNNY     65  45  48 SE13G23   29.84F
SISSETON         N/A     62  51  67 SE17G30   29.83F
$$

SDZ017-020-022-023-036>040-048>070-211600-
SOUTHEAST SOUTH DAKOTA

CITY           SKY/WX    TMP DP  RH WIND       PRES   REMARKS
SIOUX FALLS    PTSUNNY   66  55  67 SE14      29.86F
HURON          MOSUNNY   65  52  62 S13       29.80F
CHAMBERLAIN    MOSUNNY   65  54  66 SE17      29.78R
MITCHELL       SUNNY     66  52  60 SE18G25   29.81F
YANKTON        PTSUNNY   62  56  80 E10       29.83F
$$

ABBREVIATIONS USED IN REMARKS
   TC - TEMPERATURE IN CELSIUS
  WCI - WIND CHILL INDEX
   HX - HEAT INDEX
  VSB - VISIBILITY





USA.gov is the U.S. government's official web portal to all federal, state and local government web resources and services.